sat.trackr.live / text

‹ back to catalog

SCS-01 J

NORAD 63990 · 2025-100J

PAYLOAD ACTIVE UNKNOWN

§ Identity

Operator
Country
PRC
Launch date
2025-05-14
Launch site
JSC
Launch vehicle
Mass (kg)
RCS (m²)

External: N2YO · Heavens-Above · Gunter

§ Orbital elements

Epoch: 2026-05-25T03:21:22.796352Z

Period
94.09 min
Inclination
97.3629°
Eccentricity
0.0008707
Mean motion
15.30457749 rev/d
Perigee alt
468.5 km
Apogee alt
480.4 km
Semi-major
6,852.6 km
B*
8.2292e-4
RAAN
221.0136°
Arg perigee
25.9082°
Mean anomaly
334.2593°
Rev number
5,728

§ Raw data

SCS-01 J1 63990U 25100J   26145.13984718  .00024238  00000+0  82292-3 0  99982 63990  97.3629 221.0136 0008707  25.9082 334.2593 15.30457749 57284

JSON: /api/v1/satellites/63990 · /tle

For live sub-satellite position, see the globe view (requires WebGL).

§ Visibility from observer

Set your observer location to see the next 7 days of passes ≥ 10°. The values pass through the URL so the page stays shareable.

No JS? Fill the form by hand. The geolocation button needs JavaScript.